| time (UTC) | temp F | wind direction | speed knots | gust knots | rain 1hr in | rain 24hr in | rain mn in | humidity % | barometer mb |
| 20260504232000 | 70 | 232 | 0.0 | 0.9 | 0.00 | 0.00 | 0.00 | 39 | 1005.1 |
| 20260504231459 | 70 | 142 | 0.0 | 0.0 | 0.00 | 0.00 | 0.00 | 40 | 1005.0 |
| 20260504230958 | 70 | 152 | 0.0 | 7.8 | 0.00 | 0.00 | 0.00 | 38 | 1005.1 |
| 20260504230718 | 71 | 167 | 0.0 | 7.8 | 0.00 | 0.00 | 0.00 | 38 | 1005.1 |
| 20260504230451 | 71 | 128 | 0.0 | 0.0 | 0.00 | 0.00 | 0.00 | 38 | 1004.9 |
| 20260504225453 | 71 | 252 | 0.0 | 0.9 | 0.00 | 0.00 | 0.00 | 38 | 1004.9 |
| 20260504224950 | 71 | 271 | 0.0 | 0.9 | 0.00 | 0.00 | 0.00 | 38 | 1004.8 |
| 20260504224449 | 71 | 255 | 0.0 | 0.0 | 0.00 | 0.00 | 0.00 | 36 | 1004.8 |
| 20260504223946 | 71 | 246 | 0.0 | 0.0 | 0.00 | 0.00 | 0.00 | 38 | 1005.0 |
| 20260504223446 | 71 | 0 | 0.9 | 13.0 | 0.00 | 0.00 | 0.00 | 37 | 1004.9 |
| 20260504222946 | 71 | 140 | 0.9 | 13.0 | 0.00 | 0.00 | 0.00 | 38 | 1004.9 |
| 20260504222702 | 71 | 142 | 0.0 | 3.5 | 0.00 | 0.00 | 0.00 | 36 | 1004.9 |
| 20260504221939 | 72 | 261 | 0.0 | 0.9 | 0.00 | 0.00 | 0.00 | 36 | 1004.9 |
| 20260504221435 | 72 | 252 | 0.0 | 0.9 | 0.00 | 0.00 | 0.00 | 36 | 1004.9 |
| 20260504220937 | 72 | 253 | 0.9 | 4.3 | 0.00 | 0.00 | 0.00 | 35 | 1004.9 |
| 20260504220650 | 72 | 261 | 0.9 | 8.7 | 0.00 | 0.00 | 0.00 | 36 | 1004.9 |
| 20260504215921 | 72 | 139 | 0.0 | 8.7 | 0.00 | 0.00 | 0.00 | 36 | 1005.0 |
| 20260504215638 | 73 | 243 | 0.0 | 0.9 | 0.00 | 0.00 | 0.00 | 35 | 1004.8 |
| 20260504215138 | 73 | 144 | 0.0 | 2.6 | 0.00 | 0.00 | 0.00 | 34 | 1004.9 |
| 20260504214418 | 74 | 249 | 0.0 | 2.6 | 0.00 | 0.00 | 0.00 | 32 | 1004.8 |
| 20260504213910 | 74 | 234 | 0.0 | 2.6 | 0.00 | 0.00 | 0.00 | 31 | 1004.9 |
| 20260504213627 | 74 | 221 | 0.0 | 0.9 | 0.00 | 0.00 | 0.00 | 32 | 1004.9 |
| 20260504212907 | 74 | 285 | 0.0 | 0.0 | 0.00 | 0.00 | 0.00 | 32 | 1004.9 |
| 20260504212406 | 74 | 274 | 0.0 | 0.0 | 0.00 | 0.00 | 0.00 | 33 | 1004.9 |
| 20260504211904 | 74 | 278 | 0.0 | 7.0 | 0.00 | 0.00 | 0.00 | 32 | 1005.0 |
| 20260504211608 | 74 | 246 | 0.0 | 2.6 | 0.00 | 0.00 | 0.00 | 32 | 1005.1 |
| 20260504211453 | 74 | 249 | 0.0 | 7.0 | 0.00 | 0.00 | 0.00 | 32 | 1005.0 |
| 20260504210358 | 73 | 250 | 0.0 | 6.1 | 0.00 | 0.00 | 0.00 | 31 | 1005.2 |
| 20260504205852 | 73 | 231 | 0.0 | 6.1 | 0.00 | 0.00 | 0.00 | 32 | 1005.2 |
| 20260504205622 | 73 | 266 | 0.0 | 4.3 | 0.00 | 0.00 | 0.00 | 34 | 1005.2 |
| 20260504204847 | 73 | 242 | 0.0 | 4.3 | 0.00 | 0.00 | 0.00 | 33 | 1005.3 |
| 20260504204348 | 73 | 264 | 0.0 | 1.7 | 0.00 | 0.00 | 0.00 | 33 | 1005.4 |
| 20260504203829 | 73 | 286 | 0.9 | 7.0 | 0.00 | 0.00 | 0.00 | 34 | 1005.4 |
| 20260504203328 | 73 | 271 | 0.9 | 7.0 | 0.00 | 0.00 | 0.00 | 34 | 1005.6 |
| 20260504202801 | 73 | 243 | 0.0 | 3.5 | 0.00 | 0.00 | 0.00 | 32 | 1005.6 |
| 20260504202235 | 74 | 250 | 0.0 | 7.0 | 0.00 | 0.00 | 0.00 | 33 | 1005.7 |
| 20260504201706 | 74 | 296 | 0.0 | 7.0 | 0.00 | 0.00 | 0.00 | 33 | 1005.7 |
| 20260504201141 | 74 | 275 | 0.0 | 7.0 | 0.00 | 0.00 | 0.00 | 33 | 1005.8 |
| 20260504200639 | 73 | 101 | 0.0 | 7.0 | 0.00 | 0.00 | 0.00 | 35 | 1005.8 |
| 20260504200137 | 73 | 247 | 0.9 | 7.8 | 0.00 | 0.00 | 0.00 | 33 | 1006.0 |
| 20260504195635 | 73 | 246 | 0.0 | 7.8 | 0.00 | 0.00 | 0.00 | 35 | 1006.0 |
| 20260504195134 | 72 | 273 | 0.0 | 2.6 | 0.00 | 0.00 | 0.00 | 37 | 1006.1 |
| 20260504194634 | 72 | 253 | 0.0 | 0.9 | 0.00 | 0.00 | 0.00 | 34 | 1006.3 |
| 20260504194128 | 73 | 195 | 0.0 | 0.9 | 0.00 | 0.00 | 0.00 | 34 | 1006.3 |
| 20260504193627 | 73 | 259 | 0.0 | 5.2 | 0.00 | 0.00 | 0.00 | 35 | 1006.3 |
| 20260504193124 | 73 | 250 | 0.9 | 9.6 | 0.00 | 0.00 | 0.00 | 35 | 1006.4 |
| 20260504192624 | 72 | 260 | 0.0 | 9.6 | 0.00 | 0.00 | 0.00 | 35 | 1006.3 |
| 20260504192619 | 71 | 261 | 0.0 | 1.7 | 0.00 | 0.00 | 0.00 | 37 | 1006.4 |
| 20260504191622 | 72 | 261 | 0.9 | 7.0 | 0.00 | 0.00 | 0.00 | 36 | 1006.5 |
| 20260504191119 | 73 | 259 | 0.9 | 7.8 | 0.00 | 0.00 | 0.00 | 37 | 1006.6 |
| 20260504190620 | 72 | 275 | 0.0 | 7.8 | 0.00 | 0.00 | 0.00 | 35 | 1006.5 |
| 20260504190055 | 71 | 0 | 0.9 | 7.8 | 0.00 | 0.00 | 0.00 | 37 | 1006.7 |
| 20260504185749 | 73 | 263 | 0.0 | 7.8 | 0.00 | 0.00 | 0.00 | 34 | 1006.7 |
| 20260504185000 | 73 | 240 | 0.0 | 3.5 | 0.00 | 0.00 | 0.00 | 36 | 1006.6 |
| 20260504184451 | 72 | 294 | 0.0 | 4.3 | 0.00 | 0.00 | 0.00 | 34 | 1006.6 |
| 20260504183952 | 72 | 258 | 0.9 | 4.3 | 0.00 | 0.00 | 0.00 | 34 | 1006.7 |
| 20260504183448 | 72 | 247 | 0.9 | 8.7 | 0.00 | 0.00 | 0.00 | 36 | 1006.7 |
| 20260504182947 | 71 | 267 | 0.0 | 8.7 | 0.00 | 0.00 | 0.00 | 36 | 1006.8 |
| 20260504182444 | 71 | 259 | 0.0 | 7.0 | 0.00 | 0.00 | 0.00 | 38 | 1006.8 |
| 20260504182427 | 71 | 278 | 0.9 | 7.0 | 0.00 | 0.00 | 0.00 | 36 | 1006.9 |
| 20260504181443 | 71 | 258 | 0.9 | 6.1 | 0.00 | 0.00 | 0.00 | 38 | 1006.9 |
| 20260504180937 | 71 | 288 | 0.9 | 10.4 | 0.00 | 0.00 | 0.00 | 40 | 1006.9 |
| 20260504180439 | 70 | 267 | 0.9 | 10.4 | 0.00 | 0.00 | 0.00 | 38 | 1006.9 |
| 20260504180428 | 70 | 258 | 0.0 | 6.1 | 0.00 | 0.00 | 0.00 | 40 | 1007.1 |
| 20260504175659 | 71 | 249 | 0.0 | 3.5 | 0.00 | 0.00 | 0.00 | 37 | 1007.2 |
| 20260504174934 | 71 | 279 | 0.0 | 7.8 | 0.00 | 0.00 | 0.00 | 39 | 1007.2 |
| 20260504174434 | 70 | 250 | 0.0 | 7.8 | 0.00 | 0.00 | 0.00 | 36 | 1007.2 |
| 20260504173933 | 70 | 254 | 0.0 | 0.9 | 0.00 | 0.00 | 0.00 | 40 | 1007.2 |
| 20260504173640 | 71 | 169 | 0.0 | 0.9 | 0.00 | 0.00 | 0.00 | 37 | 1007.3 |
| 20260504172905 | 70 | 271 | 0.0 | 9.6 | 0.00 | 0.00 | 0.00 | 41 | 1007.3 |
| 20260504172405 | 70 | 254 | 0.9 | 9.6 | 0.00 | 0.00 | 0.00 | 38 | 1007.4 |
| 20260504171905 | 69 | 0 | 0.0 | 7.8 | 0.00 | 0.00 | 0.00 | 38 | 1007.4 |
| 20260504171405 | 69 | 246 | 0.0 | 6.1 | 0.00 | 0.00 | 0.00 | 40 | 1007.4 |
| 20260504170906 | 70 | 271 | 0.9 | 9.6 | 0.00 | 0.00 | 0.00 | 43 | 1007.5 |
| 20260504170405 | 69 | 252 | 0.9 | 9.6 | 0.00 | 0.00 | 0.00 | 39 | 1007.6 |
| 20260504160348 | 68 | 222 | 0.0 | 8.7 | 0.00 | 0.00 | 0.00 | 41 | 1008.3 |
| 20260504160331 | 67 | 267 | 0.9 | 8.7 | 0.00 | 0.00 | 0.00 | 40 | 1008.5 |
| 20260504150834 | 65 | 252 | 0.9 | 8.7 | 0.00 | 0.00 | 0.00 | 40 | 1009.1 |
| 20260504150335 | 65 | 0 | 0.0 | 6.1 | 0.00 | 0.00 | 0.00 | 43 | 1009.1 |
| 20260504141217 | 61 | 277 | 0.0 | 6.1 | 0.00 | 0.00 | 0.00 | 46 | 1009.6 |
| 20260504140714 | 60 | 257 | 0.0 | 6.1 | 0.00 | 0.00 | 0.00 | 45 | 1009.6 |
| 20260504140212 | 59 | 251 | 0.9 | 9.6 | 0.00 | 0.00 | 0.00 | 45 | 1009.7 |
| 20260504130701 | 54 | 277 | 0.0 | 0.0 | 0.00 | 0.00 | 0.00 | 54 | 1010.0 |
| 20260504130402 | 54 | 295 | 0.0 | 0.0 | 0.00 | 0.00 | 0.00 | 53 | 1010.1 |
| 20260504120132 | 53 | 314 | 0.0 | 2.6 | 0.00 | 0.00 | 0.00 | 54 | 1010.2 |
| 20260504110252 | 49 | 242 | 0.0 | 5.2 | 0.00 | 0.00 | 0.00 | 60 | 1010.1 |
| 20260504100229 | 43 | 250 | 0.0 | 0.0 | 0.00 | 0.00 | 0.00 | 73 | 1010.0 |
| 20260504081632 | 39 | 275 | 0.0 | 0.0 | 0.00 | 0.00 | 0.00 | 82 | 1010.3 |
| 20260504081347 | 39 | 275 | 0.0 | 0.0 | 0.00 | 0.00 | 0.00 | 82 | 1010.4 |
| 20260504080616 | 39 | 275 | 0.0 | 0.0 | 0.00 | 0.00 | 0.00 | 82 | 1010.4 |
| 20260504080113 | 39 | 275 | 0.0 | 0.0 | 0.00 | 0.00 | 0.00 | 82 | 1010.5 |
| 20260504050325 | 43 | 275 | 0.0 | 0.0 | 0.00 | 0.00 | 0.00 | 73 | 1010.8 |
| 20260504045759 | 43 | 275 | 0.0 | 0.0 | 0.00 | 0.00 | 0.00 | 72 | 1010.8 |
| 20260504045233 | 44 | 275 | 0.0 | 0.0 | 0.00 | 0.00 | 0.00 | 71 | 1010.8 |
| 20260504044707 | 44 | 275 | 0.0 | 0.0 | 0.00 | 0.00 | 0.00 | 71 | 1010.8 |
| 20260504044138 | 44 | 275 | 0.0 | 0.0 | 0.00 | 0.00 | 0.00 | 71 | 1010.8 |
| 20260504043622 | 44 | 275 | 0.0 | 0.0 | 0.00 | 0.00 | 0.00 | 71 | 1010.8 |
| 20260504043122 | 45 | 275 | 0.0 | 0.0 | 0.00 | 0.00 | 0.00 | 70 | 1010.8 |
| 20260504042558 | 45 | 275 | 0.0 | 0.0 | 0.00 | 0.00 | 0.00 | 70 | 1010.8 |
| 20260504042301 | 45 | 275 | 0.0 | 0.0 | 0.00 | 0.00 | 0.00 | 70 | 1010.6 |
| 20260504041755 | 46 | 275 | 0.0 | 0.0 | 0.00 | 0.00 | 0.00 | 70 | 1010.6 |
| 20260504041303 | 46 | 275 | 0.0 | 0.0 | 0.00 | 0.00 | 0.00 | 70 | 1010.6 |
| 20260504040530 | 46 | 275 | 0.0 | 0.0 | 0.00 | 0.00 | 0.00 | 70 | 1010.6 |
| 20260504040251 | 46 | 275 | 0.0 | 0.0 | 0.00 | 0.00 | 0.00 | 69 | 1010.6 |
| 20260504035528 | 46 | 275 | 0.0 | 0.0 | 0.00 | 0.00 | 0.00 | 69 | 1010.6 |
| 20260504035027 | 46 | 275 | 0.0 | 0.0 | 0.00 | 0.00 | 0.00 | 69 | 1010.8 |
| 20260504034526 | 47 | 275 | 0.0 | 0.0 | 0.00 | 0.00 | 0.00 | 69 | 1010.6 |
| 20260504034023 | 47 | 275 | 0.0 | 0.0 | 0.00 | 0.00 | 0.00 | 69 | 1010.8 |
| 20260504033518 | 47 | 275 | 0.0 | 0.0 | 0.00 | 0.00 | 0.00 | 69 | 1010.8 |
| 20260504033016 | 47 | 275 | 0.0 | 0.0 | 0.00 | 0.00 | 0.00 | 69 | 1010.8 |
| 20260504032513 | 47 | 275 | 0.0 | 0.0 | 0.00 | 0.00 | 0.00 | 69 | 1010.8 |
| 20260504032011 | 47 | 275 | 0.0 | 0.0 | 0.00 | 0.00 | 0.00 | 69 | 1010.8 |
| 20260504031511 | 47 | 275 | 0.0 | 0.0 | 0.00 | 0.00 | 0.00 | 69 | 1010.8 |
| 20260504031009 | 48 | 275 | 0.0 | 0.0 | 0.00 | 0.00 | 0.00 | 69 | 1010.6 |
| 20260504030510 | 48 | 275 | 0.0 | 0.0 | 0.00 | 0.00 | 0.00 | 68 | 1010.6 |
| 20260504025948 | 48 | 275 | 0.0 | 0.0 | 0.00 | 0.00 | 0.00 | 68 | 1010.8 |
| 20260504025444 | 48 | 275 | 0.0 | 0.0 | 0.00 | 0.00 | 0.00 | 67 | 1010.6 |
| 20260504024942 | 48 | 275 | 0.0 | 0.0 | 0.00 | 0.00 | 0.00 | 67 | 1010.8 |
| 20260504024440 | 49 | 275 | 0.0 | 0.0 | 0.00 | 0.00 | 0.00 | 66 | 1010.9 |
| 20260504023938 | 49 | 275 | 0.0 | 0.0 | 0.00 | 0.00 | 0.00 | 66 | 1010.9 |
| 20260504023438 | 49 | 275 | 0.0 | 0.0 | 0.00 | 0.00 | 0.00 | 65 | 1010.9 |
| 20260504022937 | 49 | 275 | 0.0 | 0.0 | 0.00 | 0.00 | 0.00 | 64 | 1011.0 |
| 20260504022437 | 49 | 275 | 0.0 | 0.0 | 0.00 | 0.00 | 0.00 | 63 | 1010.9 |
| 20260504021935 | 49 | 275 | 0.0 | 0.0 | 0.00 | 0.00 | 0.00 | 63 | 1010.9 |
| 20260504021434 | 49 | 275 | 0.0 | 0.0 | 0.00 | 0.00 | 0.00 | 62 | 1010.9 |
| 20260504020927 | 49 | 275 | 0.0 | 0.0 | 0.00 | 0.00 | 0.00 | 60 | 1010.9 |
| 20260504020425 | 49 | 275 | 0.0 | 0.0 | 0.00 | 0.00 | 0.00 | 60 | 1011.0 |
| 20260504015924 | 50 | 275 | 0.0 | 0.0 | 0.00 | 0.00 | 0.00 | 60 | 1010.9 |
| 20260504015417 | 50 | 275 | 0.0 | 0.0 | 0.00 | 0.00 | 0.00 | 60 | 1010.9 |
| 20260504014916 | 50 | 275 | 0.0 | 0.0 | 0.00 | 0.00 | 0.00 | 60 | 1010.8 |
| 20260504014411 | 50 | 275 | 0.0 | 0.0 | 0.00 | 0.00 | 0.00 | 60 | 1010.9 |
| 20260504013914 | 50 | 275 | 0.0 | 0.0 | 0.00 | 0.00 | 0.00 | 58 | 1010.8 |
| 20260504013550 | 50 | 275 | 0.0 | 0.0 | 0.00 | 0.00 | 0.00 | 58 | 1010.6 |
| 20260504013438 | 50 | 275 | 0.0 | 0.0 | 0.00 | 0.00 | 0.00 | 57 | 1010.8 |
| 20260504012828 | 50 | 275 | 0.0 | 0.0 | 0.00 | 0.00 | 0.00 | 58 | 1010.8 |
| 20260504011841 | 51 | 275 | 0.0 | 0.0 | 0.00 | 0.00 | 0.00 | 56 | 1010.6 |
| 20260504011341 | 51 | 275 | 0.0 | 0.0 | 0.00 | 0.00 | 0.00 | 55 | 1010.6 |
| 20260504010840 | 51 | 275 | 0.0 | 0.0 | 0.00 | 0.00 | 0.00 | 54 | 1010.5 |
| 20260504010338 | 52 | 275 | 0.0 | 0.0 | 0.00 | 0.00 | 0.00 | 54 | 1010.3 |
| 20260504010056 | 52 | 275 | 0.0 | 0.0 | 0.00 | 0.00 | 0.00 | 54 | 1010.3 |
| 20260504005334 | 53 | 275 | 0.0 | 0.0 | 0.00 | 0.00 | 0.00 | 54 | 1010.3 |
| 20260504004833 | 53 | 275 | 0.0 | 0.0 | 0.00 | 0.00 | 0.00 | 52 | 1010.3 |
| 20260504004327 | 53 | 275 | 0.0 | 0.0 | 0.00 | 0.00 | 0.00 | 51 | 1010.2 |
| 20260504004053 | 53 | 275 | 0.0 | 0.0 | 0.00 | 0.00 | 0.00 | 49 | 1010.2 |
| 20260504003550 | 53 | 275 | 0.0 | 0.0 | 0.00 | 0.00 | 0.00 | 48 | 1010.1 |
| 20260504002827 | 53 | 275 | 0.0 | 0.0 | 0.00 | 0.00 | 0.00 | 49 | 1010.1 |
| 20260504002522 | 54 | 275 | 0.0 | 0.0 | 0.00 | 0.00 | 0.00 | 50 | 1010.0 |
| 20260504001733 | 54 | 275 | 0.0 | 0.0 | 0.00 | 0.00 | 0.00 | 45 | 1009.9 |
| 20260504001205 | 55 | 275 | 0.0 | 0.0 | 0.00 | 0.00 | 0.00 | 46 | 1009.9 |
| 20260504000638 | 55 | 275 | 0.0 | 0.0 | 0.00 | 0.00 | 0.00 | 45 | 1009.8 |
| 20260504000111 | 55 | 275 | 0.0 | 0.0 | 0.00 | 0.00 | 0.00 | 45 | 1009.8 |
| 20260503235548 | 55 | 275 | 0.0 | 0.0 | 0.00 | 0.00 | 0.00 | 43 | 1009.8 |
| 20260503235022 | 55 | 275 | 0.0 | 0.0 | 0.00 | 0.00 | 0.00 | 43 | 1009.8 |
| 20260503234454 | 56 | 272 | 0.0 | 0.0 | 0.00 | 0.00 | 0.00 | 42 | 1009.6 |
| 20260503234204 | 56 | 272 | 0.0 | 3.5 | 0.00 | 0.00 | 0.00 | 42 | 1009.6 |
| 20260503233439 | 56 | 273 | 0.0 | 3.5 | 0.00 | 0.00 | 0.00 | 41 | 1009.5 |
| 20260503233138 | 56 | 289 | 0.0 | 0.0 | 0.00 | 0.00 | 0.00 | 42 | 1009.6 |
| 20260503232350 | 56 | 289 | 0.0 | 0.0 | 0.00 | 0.00 | 0.00 | 42 | 1009.6 |